{"data":{"norad_id":62581,"epoch":"2026-09-22T18:28:12.484416Z","epoch_age_seconds":122039,"freshness":"FRESH","line1":"1 62581U 25007G   26265.76958894 -.00000076  00000+0  61197-4 0  9994","line2":"2 62581  54.9776 310.0926 0013979 325.0521  34.9516 13.80622126 88218","mean_motion":13.80622126,"eccentricity":0.0013979,"inclination_deg":54.9776,"raan_deg":310.0926,"arg_perigee_deg":325.0521,"mean_anomaly_deg":34.9516,"bstar":6.1197e-5,"rev_number":8821,"period_min":104.30080562102,"perigee_km":951.4206241626,"apogee_km":971.94128720309,"semimajor_km":7339.8179556828,"source":"CELESTRAK","updated_at":"2026-09-23T09:00:21.490363Z"}}